Time,TemperatureF,DewpointF,PressureIn,WindDirection,WindDirectionDegrees,WindSpeedMPH,WindSpeedGustMPH,Humidity,HourlyPrecipIn,Conditions,Clouds,dailyrainin,SoftwareType,DateUTC
2013-01-15 01:22:00,24.0,22.0,30.28,North,-999,-999.0,-999.0,90,0.00,,,0.00,,2013-01-15 09:22:00,
2013-01-15 01:33:00,21.0,19.0,30.31,North,-999,-999.0,-999.0,90,0.00,,,0.00,,2013-01-15 09:33:00,
2013-01-15 01:42:00,21.0,19.0,30.31,North,-999,-999.0,-999.0,90,0.00,,,0.00,,2013-01-15 09:42:00,
2013-01-15 01:52:00,21.0,19.0,30.30,North,-999,-999.0,-999.0,90,0.00,,,0.00,,2013-01-15 09:52:00,
2013-01-15 02:02:00,21.0,19.0,30.30,North,-999,-999.0,-999.0,90,0.00,,,0.00,,2013-01-15 10:02:00,
2013-01-15 02:11:00,21.0,19.0,30.30,North,-999,-999.0,-999.0,90,0.00,,,0.00,,2013-01-15 10:11:00,
2013-01-15 02:22:00,21.0,19.0,30.31,North,-999,-999.0,-999.0,90,0.00,,,0.00,,2013-01-15 10:22:00,
2013-01-15 02:32:00,21.0,19.0,30.32,North,-999,-999.0,-999.0,90,0.00,,,0.00,,2013-01-15 10:32:00,
2013-01-15 02:42:00,21.0,19.0,30.32,North,-999,-999.0,-999.0,90,0.00,,,0.00,,2013-01-15 10:42:00,
2013-01-15 02:52:00,21.0,19.0,30.32,North,-999,-999.0,-999.0,90,0.00,,,0.00,,2013-01-15 10:52:00,
2013-01-15 03:02:00,21.0,19.0,30.32,North,-999,-999.0,-999.0,90,0.00,,,0.00,,2013-01-15 11:02:00,
2013-01-15 03:11:00,21.0,19.0,30.32,North,-999,-999.0,-999.0,90,0.00,,,0.00,,2013-01-15 11:11:00,
2013-01-15 03:22:00,21.0,19.0,30.32,North,-999,-999.0,-999.0,90,0.00,,,0.00,,2013-01-15 11:22:00,
2013-01-15 08:22:00,21.0,19.0,30.32,North,-999,-999.0,-999.0,90,0.00,,,0.00,,2013-01-15 16:22:00,
2013-01-15 08:33:00,18.0,16.0,30.40,North,-999,-999.0,-999.0,90,0.00,,,0.00,,2013-01-15 16:33:00,
2013-01-15 08:42:00,18.0,16.0,30.40,North,-999,-999.0,-999.0,90,0.00,,,0.00,,2013-01-15 16:42:00,
2013-01-15 08:53:00,18.0,16.0,30.40,North,-999,-999.0,-999.0,90,0.00,,,0.00,,2013-01-15 16:53:00,
2013-01-15 09:03:00,18.0,16.0,30.40,North,-999,-999.0,-999.0,90,0.00,,,0.00,,2013-01-15 17:03:00,
2013-01-15 09:12:00,18.0,16.0,30.40,North,-999,-999.0,-999.0,90,0.00,,,0.00,,2013-01-15 17:12:00,
2013-01-15 09:22:00,19.0,17.0,30.40,North,-999,-999.0,-999.0,90,0.00,,,0.00,,2013-01-15 17:22:00,
2013-01-15 09:33:00,19.0,17.0,30.40,North,-999,-999.0,-999.0,90,0.00,,,0.00,,2013-01-15 17:33:00,
2013-01-15 09:42:00,19.0,17.0,30.40,North,-999,-999.0,-999.0,90,0.00,,,0.00,,2013-01-15 17:42:00,
2013-01-15 09:53:00,20.0,18.0,30.41,North,-999,-999.0,-999.0,90,0.00,,,0.00,,2013-01-15 17:53:00,
2013-01-15 10:02:00,21.0,19.0,30.40,North,-999,-999.0,-999.0,91,0.00,,,0.00,,2013-01-15 18:02:00,
2013-01-15 10:12:00,21.0,19.0,30.40,North,-999,-999.0,-999.0,91,0.00,,,0.00,,2013-01-15 18:12:00,
2013-01-15 10:22:00,23.0,21.0,30.41,North,-999,-999.0,-999.0,91,0.00,,,0.00,,2013-01-15 18:22:00,
2013-01-15 10:33:00,23.0,21.0,30.42,North,-999,-999.0,-999.0,90,0.00,,,0.00,,2013-01-15 18:33:00,
2013-01-15 10:42:00,23.0,21.0,30.42,North,-999,-999.0,-999.0,90,0.00,,,0.00,,2013-01-15 18:42:00,
2013-01-15 10:52:00,23.0,21.0,30.42,North,-999,-999.0,-999.0,90,0.00,,,0.00,,2013-01-15 18:52:00,
2013-01-15 11:03:00,23.0,21.0,30.42,North,-999,-999.0,-999.0,90,0.00,,,0.00,,2013-01-15 19:03:00,
2013-01-15 11:12:00,23.0,21.0,30.42,North,-999,-999.0,-999.0,90,0.00,,,0.00,,2013-01-15 19:12:00,
2013-01-15 13:22:00,23.0,21.0,30.42,North,-999,-999.0,-999.0,90,0.00,,,0.00,,2013-01-15 21:22:00,
2013-01-15 13:33:00,30.0,27.0,30.41,North,-999,-999.0,-999.0,90,0.00,,,0.00,,2013-01-15 21:33:00,
2013-01-15 13:42:00,30.0,27.0,30.41,North,-999,-999.0,-999.0,90,0.00,,,0.00,,2013-01-15 21:42:00,
2013-01-15 13:52:00,30.0,27.0,30.41,North,-999,-999.0,-999.0,90,0.00,,,0.00,,2013-01-15 21:52:00,
2013-01-15 14:02:00,30.0,27.0,30.41,North,-999,-999.0,-999.0,90,0.00,,,0.00,,2013-01-15 22:02:00,
2013-01-15 14:12:00,30.0,27.0,30.41,North,-999,-999.0,-999.0,90,0.00,,,0.00,,2013-01-15 22:12:00,
2013-01-15 14:22:00,30.0,27.0,30.41,North,-999,-999.0,-999.0,90,0.00,,,0.00,,2013-01-15 22:22:00,
2013-01-15 14:32:00,30.0,27.0,30.41,North,-999,-999.0,-999.0,90,0.00,,,0.00,,2013-01-15 22:32:00,
2013-01-15 14:42:00,30.0,27.0,30.41,North,-999,-999.0,-999.0,90,0.00,,,0.00,,2013-01-15 22:42:00,
2013-01-15 16:33:00,30.0,27.0,30.42,North,-999,-999.0,-999.0,90,0.00,,,0.00,,2013-01-16 00:33:00,
2013-01-15 16:43:00,30.0,27.0,30.42,North,-999,-999.0,-999.0,90,0.00,,,0.00,,2013-01-16 00:43:00,
2013-01-15 16:53:00,30.0,27.0,30.42,North,-999,-999.0,-999.0,90,0.00,,,0.00,,2013-01-16 00:53:00,
2013-01-15 17:02:00,30.0,27.0,30.42,North,-999,-999.0,-999.0,90,0.00,,,0.00,,2013-01-16 01:02:00,
2013-01-15 17:11:00,30.0,27.0,30.42,North,-999,-999.0,-999.0,90,0.00,,,0.00,,2013-01-16 01:11:00,
2013-01-15 17:33:00,30.0,28.0,30.42,North,-999,-999.0,-999.0,91,0.00,,,0.00,,2013-01-16 01:33:00,
2013-01-15 17:43:00,30.0,28.0,30.42,North,-999,-999.0,-999.0,91,0.00,,,0.00,,2013-01-16 01:43:00,
2013-01-15 17:53:00,30.0,28.0,30.42,North,-999,-999.0,-999.0,91,0.00,,,0.00,,2013-01-16 01:53:00,
2013-01-15 18:02:00,30.0,28.0,30.42,North,-999,-999.0,-999.0,91,0.00,,,0.00,,2013-01-16 02:02:00,
2013-01-15 18:12:00,30.0,28.0,30.42,North,-999,-999.0,-999.0,91,0.00,,,0.00,,2013-01-16 02:12:00,
2013-01-15 18:22:00,30.0,28.0,30.42,North,-999,-999.0,-999.0,91,0.00,,,0.00,,2013-01-16 02:22:00,
2013-01-15 18:32:00,30.0,28.0,30.42,North,-999,-999.0,-999.0,91,0.00,,,0.00,,2013-01-16 02:32:00,
2013-01-15 18:42:00,30.0,28.0,30.42,North,-999,-999.0,-999.0,91,0.00,,,0.00,,2013-01-16 02:42:00,
2013-01-15 18:52:00,30.0,28.0,30.42,North,-999,-999.0,-999.0,91,0.00,,,0.00,,2013-01-16 02:52:00,
2013-01-15 19:02:00,29.0,27.0,30.42,North,-999,-999.0,-999.0,91,0.00,,,0.00,,2013-01-16 03:02:00,
2013-01-15 19:11:00,29.0,27.0,30.42,North,-999,-999.0,-999.0,91,0.00,,,0.00,,2013-01-16 03:11:00,
2013-01-15 19:22:00,29.0,27.0,30.42,North,-999,-999.0,-999.0,91,0.00,,,0.00,,2013-01-16 03:22:00,
2013-01-15 19:32:00,29.0,27.0,30.41,North,-999,-999.0,-999.0,91,0.00,,,0.00,,2013-01-16 03:32:00,
2013-01-15 19:42:00,29.0,27.0,30.41,North,-999,-999.0,-999.0,91,0.00,,,0.00,,2013-01-16 03:42:00,
2013-01-15 19:52:00,28.0,26.0,30.41,North,-999,-999.0,-999.0,91,0.00,,,0.00,,2013-01-16 03:52:00,
2013-01-15 20:02:00,28.0,26.0,30.40,North,-999,-999.0,-999.0,91,0.00,,,0.00,,2013-01-16 04:02:00,
2013-01-15 20:11:00,28.0,26.0,30.40,North,-999,-999.0,-999.0,91,0.00,,,0.00,,2013-01-16 04:11:00,
2013-01-15 20:22:00,28.0,26.0,30.40,North,-999,-999.0,-999.0,91,0.00,,,0.00,,2013-01-16 04:22:00,
2013-01-15 20:32:00,27.0,25.0,30.40,North,-999,-999.0,-999.0,91,0.00,,,0.00,,2013-01-16 04:32:00,
2013-01-15 20:42:00,27.0,25.0,30.40,North,-999,-999.0,-999.0,91,0.00,,,0.00,,2013-01-16 04:42:00,
2013-01-15 20:52:00,26.0,24.0,30.40,North,-999,-999.0,-999.0,91,0.00,,,0.00,,2013-01-16 04:52:00,
2013-01-15 21:03:00,26.0,24.0,30.40,North,-999,-999.0,-999.0,91,0.00,,,0.00,,2013-01-16 05:03:00,
2013-01-15 21:12:00,26.0,24.0,30.40,North,-999,-999.0,-999.0,91,0.00,,,0.00,,2013-01-16 05:12:00,
2013-01-15 21:22:00,25.0,23.0,30.40,North,-999,-999.0,-999.0,91,0.00,,,0.00,,2013-01-16 05:22:00,
2013-01-15 21:32:00,25.0,23.0,30.40,North,-999,-999.0,-999.0,92,0.00,,,0.00,,2013-01-16 05:32:00,
2013-01-15 21:42:00,25.0,23.0,30.40,North,-999,-999.0,-999.0,92,0.00,,,0.00,,2013-01-16 05:42:00,
2013-01-15 21:53:00,25.0,23.0,30.40,North,-999,-999.0,-999.0,91,0.00,,,0.00,,2013-01-16 05:53:00,
2013-01-15 22:02:00,25.0,23.0,30.40,North,-999,-999.0,-999.0,91,0.00,,,0.00,,2013-01-16 06:02:00,
2013-01-15 22:11:00,25.0,23.0,30.40,North,-999,-999.0,-999.0,91,0.00,,,0.00,,2013-01-16 06:11:00,
2013-01-15 22:22:00,25.0,23.0,30.40,North,-999,-999.0,-999.0,91,0.00,,,0.00,,2013-01-16 06:22:00,
2013-01-15 22:32:00,24.0,22.0,30.40,North,-999,-999.0,-999.0,91,0.00,,,0.00,,2013-01-16 06:32:00,
2013-01-15 22:41:00,23.0,21.0,30.40,North,-999,-999.0,-999.0,91,0.00,,,0.00,,2013-01-16 06:41:00,
2013-01-15 22:42:00,24.0,22.0,30.40,North,-999,-999.0,-999.0,91,0.00,,,0.00,,2013-01-16 06:42:00,
2013-01-15 22:53:00,24.0,22.0,30.40,North,-999,-999.0,-999.0,91,0.00,,,0.00,,2013-01-16 06:53:00,
2013-01-15 23:02:00,23.0,21.0,30.40,North,-999,-999.0,-999.0,91,0.00,,,0.00,,2013-01-16 07:02:00,
2013-01-15 23:11:00,23.0,21.0,30.40,North,-999,-999.0,-999.0,91,0.00,,,0.00,,2013-01-16 07:11:00,
2013-01-15 23:22:00,23.0,21.0,30.40,North,-999,-999.0,-999.0,91,0.00,,,0.00,,2013-01-16 07:22:00,
2013-01-15 23:32:00,23.0,21.0,30.40,North,-999,-999.0,-999.0,91,0.00,,,0.00,,2013-01-16 07:32:00,